Weather in Sainshand

Mongolia     44°53′40″N   110°08′10″E
temp.,
°C
wind,
m/s
gust,
m/s
humid.,
%
clouds,
%
prec.,
mm/h
press.,
hPa
HPBL,
m
14 may, fri
fri1423:00+19s4426100 0.0 100159
02:00+18ssw5930100 0.0 1001175
05:00+13nnw6949100 0.0 1003237
08:00+10nne101061100 0.1 1008688
11:00+9nne8869100 1.6 1011806
14:00+9nne91056100 2.0 1012939
17:00+13n8827100 0.0 10111539
20:00+11nne681978 0.0 1013634
15 may, sat
sat1523:00+9n4724100 0.0 1017170
02:00+7n2230100 0.0 101824
05:00+6n343474 0.0 101946
08:00+9nne3429100 0.0 1020248
11:00+12ne2221100 0.0 10191311
14:00+14nw2216100 0.0 10181798
17:00+16wnw341343 0.0 10161987
20:00+15s22155 0.0 101628
16 may, sun
sun1623:00+13s57183 0.0 1017132
02:00+11ssw510218 0.0 1017190
05:00+10ssw58251 0.0 1017124
08:00+13sw33230 0.0 1017193
11:00+18w33200 0.0 1015816
14:00+21wnw46140 0.0 10123035
17:00+23wnw56130 0.0 10103291
20:00+20sw22170 0.0 100912
17 may, mon
mon1723:00+18wsw33180 0.0 100930
02:00+16wnw44220 0.0 100938
05:00+14nw33250 0.0 100924
08:00+18w34210 0.0 1009224
11:00+22wsw35150 0.0 10071126
14:00+26w710110 0.0 10043345
17:00+26wnw7890 0.0 10023666
20:00+23w33120 0.0 100237
18 may, tue
tue1823:00+22wnw11151879 0.0 1003379
02:00+19sw441998 0.0 100344
05:00+16sw33233 0.0 100219
08:00+20w46190 0.0 1002244
11:00+24w56150 0.0 10011198
14:00+27w89111 0.0 9993883
17:00+28w8101140 0.0 9974223
20:00+26w591253 0.0 998261